This is the latest recevied weather packets stored in our database for station/object K8DJB-1. If no packets are shown the sender has not sent any weather packets the latest 1 day(s).
| Time | Temp. | Humidity | Pressure | Rain* | Wind** | Luminosity | Snow |
|---|---|---|---|---|---|---|---|
| 1778065462 | 2.22° C | 84% | 1010.1 hPa | 0 mm | - | - | - |
| 1778065262 | 2.22° C | 84% | 1009.9 hPa | 0 mm | - | - | - |
| 1778065162 | 2.22° C | 84% | 1009.9 hPa | 0 mm | - | - | - |
| 1778064418 | 2.22° C | 83% | 1010 hPa | 0 mm | - | - | - |
| 1778063962 | 2.22° C | 84% | 1009.9 hPa | 0 mm | - | - | - |
| 1778063062 | 1.67° C | 84% | 1010.1 hPa | 0 mm | - | - | - |
| 1778062762 | 1.67° C | 83% | 1010.1 hPa | 0 mm | - | - | - |
| 1778062555 | 1.67° C | 83% | 1010.1 hPa | 0 mm | - | - | - |
| 1778062465 | 1.67° C | 83% | 1010.1 hPa | 0 mm | - | - | - |
| 1778062268 | 2.22° C | 83% | 1010.1 hPa | 0 mm | - | - | - |
| 1778061562 | 2.22° C | 83% | 1010 hPa | 0 mm | - | - | - |
| 1778061262 | 2.22° C | 84% | 1009.9 hPa | 0 mm | - | - | - |
| 1778060962 | 1.67° C | 84% | 1009.9 hPa | 0 mm | - | - | - |
| 1778060362 | 2.22° C | 83% | 1009.8 hPa | 0 mm | - | - | - |
| 1778059417 | 2.22° C | 83% | 1009.7 hPa | 0 mm | - | - | - |
| 1778057917 | 2.78° C | 83% | 1009.4 hPa | 0 mm | - | - | - |
| 1778056717 | 2.78° C | 81% | 1009.2 hPa | 0 mm | - | - | - |
| 1778056417 | 3.33° C | 81% | 1009.3 hPa | 0 mm | - | - | - |
| 1778056118 | 3.33° C | 80% | 1009.2 hPa | 0 mm | - | - | - |
| 1778054317 | 3.89° C | 79% | 1009.4 hPa | 0 mm | - | - | - |
| 1778052025 | 5° C | 72% | 1009.3 hPa | 0 mm | - | - | - |
| 1778051683 | 5° C | 72% | 1009.3 hPa | 0 mm | - | - | - |
| 1778051087 | 5.56° C | 71% | 1009.5 hPa | 0 mm | - | - | - |
| 1778050487 | 5.56° C | 70% | 1009.5 hPa | 0 mm | - | - | - |
| 1778049887 | 6.11° C | 69% | 1009.5 hPa | 0 mm | - | - | - |
* Rain latest hour (hover to see other rain measurements)
** Current wind speed in m/s (hover to see current wind gust speed)